Location: Handeloh
(53.2500°N, 9.8330°E)
Time: 21:21:41
(UTC+01:00)

S-56A Canister/Altair - Pass Details

Date: 21 November 2019
Orbit: 633 x 2499 km, 38.9° (Epoch: 06 December)

Event Time Altitude Azimuth Distance (km) Brightness Sun altitude
Rises 17:20:26 0° 232° (SW) 5,314 13.5 -9.3°
Reaches altitude 10° 17:25:00 10° 222° (SW) 3,987 12.3 -9.9°
Maximum altitude 17:32:37 26° 172° (S) 2,378 10.1 -11.0°
Drops below altitude 10° 17:38:17 10° 119° (ESE) 2,881 10.1 -11.8°
Enters shadow 17:39:26 - 113° (ESE) 3,164 10.2 -12.0°
Sets 17:41:00 0° 106° (ESE) 3,606 - -12.2°
